Location: Ailly
(50.0793°N, 1.9944°E)
Time: 19:47:37
(UTC+00:00)

Cosmos 44 - Pass Details

Date: 15 January 2026
Orbit: 570 x 780 km, 65.1° (Epoch: 15 February)

Event Time Altitude Azimuth Distance (km) Brightness Sun altitude
Exits shadow 05:41:11 27° 323° (NW) 1,456 4.5 -19.2°
Maximum altitude 05:44:13 84° 50° (NE) 786 3.5 -18.7°
Drops below altitude 10° 05:49:37 10° 139° (SE) 2,329 6.8 -17.9°
Sets 05:52:01 0° 140° (SE) 3,249 7.6 -17.5°
